User: anonymous   Login
Location: Rumah Geringgi
(3.1667°N, 113.1667°E)
Time: 03:09:03
(UTC+00:00)
Language:

Palapa 6 Rocket - Orbit

View from above orbital plane
View from above orbital plane
View from above satellite
View from above satellite

Ground track
Ground track

The orbit data is extracted from the following two-line orbital elements,

1 20571U 90034B   24287.56790666  .00008935  00000-0  12411-2 0  9995
2 20571  22.7493   9.0996 0483087 211.8992 145.1327 14.18404369770938
Epoch (UTC): 13 October 2024 13:37:47
Eccentricity: 0.0483087
inclination: 22.7493°
perigee height: 482 km
apogee height: 1179 km
right ascension of ascending node: 9.0996°
argument of perigee: 211.8992°
revolutions per day: 14.18404369
mean anomaly at epoch: 145.1327°
orbit number at epoch: 77093

The dashed part of the orbit path shows where the satellite is in the earth's shadow,  

DLR